Weather History for Barksdale AFB, LA

Change the Weather History Date:

Saturday, January 26, 2013

  Actual Average Record
Temperature  
Mean Temperature 48 °F -  
Max Temperature 51 °F 54 °F 77 °F (2005)
Min Temperature 46 °F 36 °F 25 °F (2011)
Degree Days  
Heating Degree Days 16    
Moisture  
Dew Point 44 °F    
Average Humidity 84    
Maximum Humidity 98    
Minimum Humidity 74    
Precipitation  
Precipitation 0.00 in - - ()
Sea Level Pressure  
Sea Level Pressure 30.20 in    
Wind  
Wind Speed 5 mph (East)    
Max Wind Speed 10 mph    
Max Gust Speed -    
Visibility 10 miles    
Events      
Averages and records for this station are not official NWS values.
T = Trace of Precipitation, MM = Missing Value Source: NWS Daily Summary

Daily Weather History Graph

Daily Weather History Graph

Search for Another Location

Airport:

Trip Planner

Search our weather history database for the weather conditions in past years. The results will help you decide how hot, cold, wet, or windy it might be!

Date:

Astronomy

Jan. 26, 2013 Rise Set
Actual Time 7:12 AM CST 5:42 PM CST
Civil Twilight 6:46 AM CST 6:08 PM CST
Nautical Twilight 6:16 AM CST 6:38 PM CST
Astronomical Twilight 5:47 AM CST 7:07 PM CST
Moon 5:35 PM CST 6:32 AM CST
Length of Visible Light 11h 22m
Length of Day
10h 29m
Full, 100% of the Moon is Illuminated
Jan 26
Full
Jan 26
Full
Feb 3
Last Quarter
Feb 10
New
Feb 17
First Quarter

Hourly Weather History & Observations

Time (CST) Temp. Windchill Dew Point Humidity Pressure Visibility Wind Dir Wind Speed Gust Speed Precip Events Conditions
12:58 AM 48.9 °F - 43.7 °F 82% 30.21 in 10.0 mi East 3.5 mph - N/A   Overcast
1:58 AM 48.2 °F - 44.6 °F 87% 30.20 in 10.0 mi East 5.8 mph - N/A   Overcast
2:53 AM 48.2 °F - 42.8 °F 82% 30.20 in 10.0 mi Variable 5.8 mph - N/A   Overcast
2:58 AM 49.1 °F - 43.2 °F 80% 30.20 in 10.0 mi ENE 6.9 mph - N/A   Overcast
3:03 AM 50.0 °F - 42.8 °F 76% 30.20 in 10.0 mi ENE 3.5 mph - N/A   Overcast
3:23 AM 48.2 °F - 42.8 °F 82% 30.20 in 10.0 mi NE 3.5 mph - N/A   Overcast
3:58 AM 48.2 °F - 42.8 °F 82% 30.19 in 10.0 mi ESE 6.9 mph - N/A   Overcast
4:14 AM 48.2 °F - 42.8 °F 82% 30.18 in 10.0 mi Variable 6.9 mph - N/A   Light Drizzle
4:33 AM 48.2 °F - 41.0 °F 76% 30.18 in 10.0 mi East 4.6 mph - N/A   Overcast
4:58 AM 48.9 °F - 41.4 °F 75% 30.18 in 10.0 mi East 5.8 mph - 0.00 in   Overcast
5:43 AM 48.2 °F - 41.0 °F 76% 30.19 in 10.0 mi East 6.9 mph - N/A   Overcast
5:58 AM 48.4 °F - 42.1 °F 79% 30.19 in 10.0 mi Variable 6.9 mph - N/A   Overcast
6:03 AM 48.2 °F - 42.8 °F 82% 30.19 in 10.0 mi East 6.9 mph - N/A   Overcast
6:23 AM 48.2 °F - 42.8 °F 82% 30.21 in 10.0 mi Variable 5.8 mph - N/A   Overcast
6:43 AM 46.4 °F 42.9 °F 42.8 °F 87% 30.21 in 10.0 mi East 6.9 mph - N/A   Overcast
6:58 AM 47.3 °F - 41.9 °F 82% 30.21 in 10.0 mi East 6.9 mph - N/A   Overcast
7:28 AM 46.4 °F 44.3 °F 42.8 °F 87% 30.21 in 10.0 mi East 4.6 mph - N/A   Overcast
7:38 AM 46.4 °F 44.3 °F 42.8 °F 87% 30.22 in 10.0 mi Variable 4.6 mph - N/A   Overcast
7:58 AM 46.8 °F - 41.9 °F 83% 30.22 in 10.0 mi East 5.8 mph - N/A   Overcast
8:03 AM 46.4 °F 42.4 °F 41.0 °F 81% 30.22 in 10.0 mi ENE 8.1 mph - N/A   Overcast
8:58 AM 46.8 °F - 42.1 °F 84% 30.24 in 10.0 mi East 9.2 mph - N/A   Overcast
9:58 AM 46.9 °F - 42.8 °F 86% 30.26 in 10.0 mi ENE 6.9 mph - N/A   Overcast
10:58 AM 48.4 °F - 43.5 °F 83% 30.25 in 10.0 mi East 8.1 mph - 0.00 in   Overcast
11:33 AM 48.2 °F - 42.8 °F 82% 30.24 in 10.0 mi East 10.4 mph - N/A   Overcast
11:58 AM 48.9 °F - 43.2 °F 80% 30.23 in 10.0 mi East 5.8 mph - N/A   Overcast
12:58 PM 49.6 °F - 43.0 °F 78% 30.20 in 10.0 mi ENE 5.8 mph - N/A   Overcast
1:58 PM 51.4 °F - 43.3 °F 74% 30.19 in 10.0 mi East 5.8 mph - N/A   Overcast
2:26 PM 51.8 °F - 44.6 °F 76% 30.17 in 10.0 mi ENE 4.6 mph - N/A   Light Drizzle
2:35 PM 51.8 °F - 44.6 °F 76% 30.18 in 10.0 mi ENE 5.8 mph - N/A   Overcast
2:58 PM 51.6 °F - 44.8 °F 77% 30.18 in 10.0 mi East 4.6 mph - 0.00 in   Overcast
3:58 PM 51.6 °F - 45.1 °F 79% 30.18 in 10.0 mi ENE 3.5 mph - N/A   Overcast
4:58 PM 51.3 °F - 45.0 °F 79% 30.18 in 10.0 mi NE 6.9 mph - N/A   Overcast
5:58 PM 50.7 °F - 44.8 °F 80% 30.19 in 10.0 mi NNE 5.8 mph - N/A   Overcast
6:58 PM 49.1 °F - 45.5 °F 87% 30.19 in 10.0 mi NNE 5.8 mph - N/A   Overcast
7:58 PM 48.9 °F - 45.5 °F 88% 30.19 in 10.0 mi NE 4.6 mph - N/A   Overcast
8:23 PM 48.2 °F - 44.6 °F 87% 30.19 in 10.0 mi ENE 4.6 mph - N/A   Overcast
8:58 PM 48.4 °F - 45.3 °F 89% 30.19 in 10.0 mi ENE 3.5 mph - N/A   Overcast
9:58 PM 47.3 °F - 45.1 °F 92% 30.20 in 10.0 mi ENE 3.5 mph - N/A   Overcast
10:08 PM 48.2 °F - 44.6 °F 87% 30.20 in 10.0 mi East 3.5 mph - N/A   Overcast
10:43 PM 48.2 °F - 46.4 °F 93% 30.20 in 10.0 mi East 4.6 mph - N/A   Overcast
10:58 PM 47.7 °F - 45.7 °F 93% 30.20 in 10.0 mi East 2.3 mph - N/A   Overcast
11:08 PM 48.2 °F - 46.4 °F 93% 30.20 in 9.0 mi East 4.6 mph - N/A   Overcast
11:18 PM 48.2 °F - 46.4 °F 93% 30.21 in 8.0 mi East 4.6 mph - N/A   Overcast
11:38 PM 48.2 °F - 46.4 °F 93% 30.20 in 7.0 mi ESE 5.8 mph - N/A   Overcast
11:48 PM 48.2 °F - 46.4 °F 93% 30.19 in 6.0 mi East 3.5 mph - N/A   Overcast
11:58 PM 47.7 °F - 47.1 °F 98% 30.19 in 5.0 mi ESE 5.8 mph - N/A   Overcast